Regional Weather Roundup
Issued by NWS

Home | Current Version | Previous Version | Graphics & Text | Print | Product List | Glossary Off
Versions: 1 2 3 4 5 6 7 8 9 10 11 12 13 14 15 16 17 18 19 20 21 22 23 24 25 26 27 28 29 30 31 32 33 34 35 36 37 38 39 40 41 42 43 44 45 46 47 48 49 50

000
ASUS43 KDMX 062207
RWRIA

WEATHER ROUNDUP FOR IOWA
NATIONAL WEATHER SERVICE DES MOINES IA
500 PM CDT MON JUL 06 2015

NOTE: "FAIR" INDICATES FEW OR NO CLOUDS BELOW 12,000 FEET WITH NO
SIGNIFICANT WEATHER AND/OR OBSTRUCTIONS TO VISIBILITY.

* - THESE STATIONS ARE NOT NWS STATIONS...THUS NOT UNDER NWS
QUALITY CONTROL.  THEY ALSO DO NOT REPORT WEATHER SUCH
AS PRECIPITATION OR FOG.

IAZ001>003-012>014-020>022-031>034-043>046-062300-
   NORTHWEST IOWA

CITY           SKY/WX    TMP DP  RH WIND       PRES   REMARKS
CARROLL *      CLOUDY    70  66  88 N13       29.93S HAZE
CHEROKEE *     MOSUNNY   73  63  68 N15G23    29.97S HAZE
DENISON *      CLOUDY    72  64  78 N16G25    29.93R HAZE
LE MARS *      MOSUNNY   73  61  64 N20G26    30.00S HAZE
ORANGE CITY *    N/A     72  59  64 N13G24    30.00S HAZE
SHELDON *      MOSUNNY   73  61  64 N18       29.99S HAZE
SIOUX CITY     PTSUNNY   76  61  59 N23       29.97S HAZE
SPENCER        CLOUDY    74  58  57 N20G28    29.98S HAZE
STORM LAKE *   SUNNY     72  57  60 N18G31    29.98R HAZE
$$

IAZ055>058-069>071-079>083-090>094-062300-
   SOUTHWEST IOWA

CITY           SKY/WX    TMP DP  RH WIND       PRES   REMARKS
ATLANTIC *     PTSUNNY   70  66  88 N17G30    29.91R
AUDUBON *      RAIN      66  63  88 N17G24    29.95R
CLARINDA *     LGT RAIN  73  72  94 N7        29.89S
COUNCIL BLFS * PTSUNNY   73  66  78 N22G29    29.92R
CRESTON *      LGT RAIN  72  70  94 N9        29.88F
HARLAN  *      PTSUNNY   72  72 100 NE20      29.96R
LAMONI         RAIN      74  72  93 N5        29.85F FOG
RED OAK *      CLOUDY    75  72  88 N15G21    29.89S
SHENANDOAH *   CLOUDY    75  72  88 NE9       29.88F
$$

IAZ047>049-059>061-072>074-084-062300-
   CENTRAL IOWA

CITY           SKY/WX    TMP DP  RH WIND       PRES   REMARKS
AMES           HVY RAIN  71  69  93 N13       29.89R VSB 1
ANKENY *       CLOUDY    73  72  94 NW6       29.87F
CHARITON *     CLOUDY    73  72  94 NW8       29.86F
DES MOINES     CLOUDY    75  70  84 W3        29.86F
GRINNELL*      CLOUDY    75  70  83 NW13      29.88R
KNOXVILLE *    MOSUNNY   73  70  88 NW14      29.85S
MARSHALLTOWN   CLOUDY    75  71  87 NW16G22   29.86S
PELLA *        LGT RAIN  75  73  94 NW12      29.86F
PERRY *        CLOUDY    70  68  94 N14G20    29.90F
$$

IAZ004>006-015-016-023>025-035-036-062300-
   NORTH CENTRAL IOWA

CITY           SKY/WX    TMP DP  RH WIND       PRES   REMARKS
ALGONA *       MOSUNNY   72  59  64 N17G25    29.95S HAZE
CLARION *      MOSUNNY   72  61  68 N18G30    29.92R HAZE
ESTHERVILLE    PTSUNNY   72  60  66 N17G25    29.97S HAZE
FORT DODGE *   PTSUNNY   72  61  68 N10G17    29.93S
MASON CITY     MOSUNNY   73  60  63 N24G31    29.94R HAZE
FOREST CITY *  SUNNY     68  57  68 N21G29    29.94R HAZE
IOWA FALLS *   CLOUDY    73  66  78 N12G21    29.90R
$$

IAZ007>011-017>019-026>030-037>042-050>054-066-062300-
   NORTHEAST IOWA

CITY           SKY/WX    TMP DP  RH WIND       PRES   REMARKS
CEDAR RAPIDS   HVY RAIN  78  75  90 NW7       29.84S HX  81
CHARLES CITY * CLOUDY    72  66  83 N21       29.90R
CLINTON *      PTSUNNY   75  70  83 SE9       29.86F THUNDER
DECORAH *        N/A    N/A N/A N/A MISG        N/A
DUBUQUE        PTSUNNY   77  71  82 SW9       29.85S
MONTICELLO *   MOSUNNY   81  77  89 SW10      29.85R HX  88
OELWEIN *      LGT RAIN  73  73 100 W15       29.86R
WATERLOO       CLOUDY    72  70  93 NW10      29.85R
$$

IAZ064-065-067-068-078-062300-
   EAST CENTRAL IOWA

CITY           SKY/WX    TMP DP  RH WIND       PRES   REMARKS
DAVENPORT      PTSUNNY   74  70  87 S8        29.86R THUNDER
IOWA CITY      PTSUNNY   82  75  79 NW8       29.83F HX  89
MT. PLEASANT * CLOUDY    86  72  62 S6        29.80F HX  92
MUSCATINE *    CLOUDY    77  72  83 E6        29.83S
QUAD CITIES    TSTM      72  69  90 SW6       29.87R FOG
$$

IAZ062-063-075>077-085>089-095>099-062300-
   SOUTHEAST IOWA

CITY           SKY/WX    TMP DP  RH WIND       PRES   REMARKS
BURLINGTON     PTSUNNY   86  76  71 S10       29.82F HX  96
FAIRFIELD *    LGT RAIN  81  75  83 CALM      29.80F HX  86
FORT MADISON * MOSUNNY   84  75  74 S10G18    29.83F HX  92
KEOKUK *       MOSUNNY   86  77  74 S9G16     29.81F HX  97
OSKALOOSA *    LGT RAIN  72  70  94 CALM      29.85S
CENTERVILLE *  LGT RAIN  72  72 100 N7        29.85F
OTTUMWA        RAIN      72  71  97 W6        29.83R FOG
WASHINGTON *   CLOUDY    81  77  89 CALM      29.82F HX  88
$$

ABBREVIATIONS USED IN REMARKS
   TC - TEMPERATURES IN CELSIUS
  WCI - WIND CHILL INDEX
   HX - HEAT INDEX
  VSB - VISIBILITY
$$



USA.gov is the U.S. government's official web portal to all federal, state and local government web resources and services.